Flag for Uzbekistan Weather past 2 weeks in Samarkand, Uzbekistan

Now
70 °F

Clear.


Feels Like: 70 °F
Forecast: 65 / 93 °F
Wind: 6 mph from Southeast

Location: Samarkand

Current Time: Jul 25, 2014 at 4:22:46 AM

Latest Report: Jul 25, 2014 at 3:30 AM


Visibility: N/A

Pressure: 29.80 "Hg

Humidity: 25%

Dew point: 32 °F

Location of SamarkandLocation

Historic Weather in Samarkand — Graph

°F

Samarkand temperature yesterday

Maximum temperature yesterday: 88 °F (at 1:00 PM)
Minimum temperature yesterday: 61 °F (at 5:00 AM)
Average temperature yesterday: 79 °F

Past Weeks' High & Low Weather Summary

 TemperatureHumidityPressure
High100 °F (Jul 11, 3:30 PM)77% (Jul 15, 5:30 AM)29.89 "Hg (Jul 15, 5:30 AM)
Low55 °F (Jul 17, 2:30 AM)10% (Jul 11, 1:00 PM)29.65 "Hg (Jul 10, 3:00 AM)
Average80 °F27%29.78 "Hg
* Reported Jul 10 3:00 AM — Jul 25 3:00 AM, Samarkand, Weather by CustomWeather, © 2014

Note: Actual official high and low records may vary slightly from our data, if they occured in-between our weather recording intervals... More about our weather records

Advertising

Samarkand weather history for previous 24 hours

 ConditionsComfort  
Time TempWeatherWind HumidityBarometerVisibility
3:00 AM
Jul 25
70 °FClear.6 mph25%29.80 "HgN/A
2:30 AM70 °FClear.6 mph25%29.83 "HgN/A
1:30 AM72 °FClear.6 mph20%29.83 "HgN/A
1:00 AM73 °FClear.10 mph20%29.83 "HgN/A
12:30 AM73 °FClear.10 mph22%29.83 "HgN/A
12:00 AM73 °FClear.10 mph25%29.86 "HgN/A
11:30 PM
Jul 24
73 °FClear.10 mph22%29.86 "HgN/A
11:00 PM75 °FClear.13 mph22%29.86 "HgN/A
10:30 PM77 °FClear.13 mph21%29.86 "HgN/A
10:00 PM77 °FClear.13 mph19%29.86 "HgN/A
9:30 PM77 °FClear.13 mph22%29.86 "HgN/A
9:00 PM79 °FClear.13 mph23%29.86 "HgN/A
8:30 PM79 °FClear.13 mph23%29.86 "HgN/A
8:00 PM81 °FClear.13 mph23%29.86 "HgN/A
7:30 PM81 °FClear.13 mph23%29.83 "HgN/A
7:00 PM82 °FClear.13 mph21%29.83 "HgN/A
6:30 PM84 °FClear.15 mph19%29.83 "HgN/A
6:00 PM86 °FClear.17 mph19%29.83 "HgN/A
5:30 PM88 °FClear.15 mph18%29.83 "HgN/A
5:00 PM88 °FClear.15 mph18%29.83 "HgN/A
4:30 PM88 °FClear.15 mph18%29.83 "HgN/A
4:00 PM88 °FClear.13 mph17%29.83 "HgN/A
3:30 PM88 °FClear.13 mph19%29.83 "HgN/A
3:00 PM88 °FClear.8 mph18%29.83 "HgN/A
2:30 PM88 °FClear.13 mph16%29.83 "HgN/A
2:00 PM88 °FClear.13 mph16%29.86 "HgN/A
1:30 PM88 °FClear.13 mph15%29.86 "HgN/A
1:00 PM88 °FClear.15 mph18%29.86 "HgN/A
12:30 PM86 °FClear.15 mph15%29.86 "HgN/A
12:00 PM86 °FClear.15 mph18%29.86 "HgN/A
11:30 AM86 °FClear.17 mph15%29.86 "HgN/A
11:00 AM84 °FClear.17 mph19%29.86 "HgN/A
10:30 AM84 °FClear.20 mph16%29.86 "HgN/A
10:00 AM82 °FClear.20 mph16%29.86 "HgN/A
9:30 AM82 °FClear.15 mph19%29.86 "HgN/A
9:00 AM79 °FClear.3 mph28%29.89 "HgN/A
8:30 AM77 °FClear.6 mph26%29.89 "HgN/A
8:00 AM75 °FClear.6 mph29%29.89 "HgN/A
7:30 AM72 °FClear.1 mph41%29.89 "HgN/A
7:00 AM70 °FClear.No wind50%29.89 "HgN/A
6:30 AM66 °FClear.1 mph43%29.86 "HgN/A
5:30 AM63 °FClear.No wind52%29.86 "HgN/A
5:00 AM61 °FClear.1 mph55%29.86 "HgN/A
4:30 AM66 °FClear.No wind40%29.86 "HgN/A
4:00 AM63 °FClear.1 mph45%29.83 "HgN/A
Weather by CustomWeather, © 2014

See weather overviewHow to use our weather pages